Regional Weather Roundup
Issued by NWS

Home | Current Version | Previous Version | Graphics & Text | Print | Product List | Glossary Off
Versions: 1 2 3 4 5 6 7 8 9 10 11 12 13 14 15 16 17 18 19 20 21 22 23 24 25 26 27 28 29 30 31 32 33 34 35 36 37 38 39 40 41 42 43 44 45 46 47 48 49 50

000
ASUS43 KDMX 190301
RWRIA

WEATHER ROUNDUP FOR IOWA
NATIONAL WEATHER SERVICE DES MOINES IA
1000 PM CDT WED OCT 18 2017

NOTE: "FAIR" INDICATES FEW OR NO CLOUDS BELOW 12,000 FEET WITH NO
SIGNIFICANT WEATHER AND/OR OBSTRUCTIONS TO VISIBILITY.

* - THESE STATIONS ARE NOT NWS STATIONS...THUS NOT UNDER NWS
QUALITY CONTROL.  THEY ALSO DO NOT REPORT WEATHER SUCH
AS PRECIPITATION OR FOG.

IAZ001>003-012>014-020>022-031>034-043>046-190400-
   NORTHWEST IOWA

CITY           SKY/WX    TMP DP  RH WIND       PRES   REMARKS
CARROLL *      CLEAR     59  59 100 CALM      30.04R
CHEROKEE *     CLEAR     45  42  90 CALM      30.05R
DENISON *      CLEAR     48  45  87 CALM      30.06R
LE MARS *      CLEAR     48  41  76 CALM      30.05R
ORANGE CITY *  CLEAR     61  30  31 NE5       30.05S
SHELDON *      CLEAR     41  37  87 N3        30.04R
SIOUX CITY     CLEAR     48  43  82 W6        30.05R
SPENCER        CLEAR     44  37  76 NW3       30.05R
STORM LAKE *   CLEAR     54  36  50 NE5       30.04S
$$

IAZ055>058-069>071-079>083-090>094-190400-
   SOUTHWEST IOWA

CITY           SKY/WX    TMP DP  RH WIND       PRES   REMARKS
ATLANTIC *     CLEAR     52  48  87 CALM      30.04R
AUDUBON *      CLEAR     45  43  93 CALM      30.05S
CLARINDA *       N/A     50  48  93 CALM      30.06R
COUNCIL BLFS * CLEAR     59  48  67 NE8       30.03S
CRESTON *      CLEAR     57  48  72 S6        30.05S
HARLAN  *      CLEAR     48  46  93 CALM      30.08R
LAMONI         CLEAR     60  48  64 S6        30.05R
RED OAK *      CLEAR     50  46  87 CALM      30.03S
SHENANDOAH *   CLEAR     52  48  87 CALM      30.03S
$$

IAZ047>049-059>061-072>074-084-190400-
   CENTRAL IOWA

CITY           SKY/WX    TMP DP  RH WIND       PRES   REMARKS
AMES           CLEAR     53  50  89 CALM      30.02R
ANKENY *       CLEAR     54  50  87 S3        30.04R
BOONE *        CLEAR     55  48  76 NW3       30.02S
CHARITON *     CLEAR     55  48  76 SW6       30.04R
DES MOINES     MOCLDY    63  49  60 CALM      30.03R
GRINNELL*      CLEAR     58  48  69 S7        30.04R
KNOXVILLE *    CLEAR     57  48  72 SW6       30.02R
MARSHALLTOWN   CLEAR     56  48  74 W7        30.01R
NEWTON *       CLEAR     61  48  63 SW6       30.03R
PELLA *        CLEAR     59  48  66 S5        30.04R
PERRY *          N/A     49  47  91 CALM      30.03R
$$

IAZ004>006-015-016-023>025-035-036-190400-
   NORTH CENTRAL IOWA

CITY           SKY/WX    TMP DP  RH WIND       PRES   REMARKS
ALGONA *       CLEAR     52  39  62 CALM      30.04R
CLARION *      CLEAR     48  43  81 CALM      30.03S
ESTHERVILLE    CLOUDY    43  37  79 NW6       30.04R
FORT DODGE *   CLEAR     50  45  83 CALM      30.04R
MASON CITY     CLOUDY    49  35  58 NW5       30.04R
FOREST CITY *    N/A     48  37  66 CALM      30.03R
WEBSTER CITY * CLEAR     50  43  76 CALM      30.01R
IOWA FALLS *     N/A     52  46  82 CALM      30.03R
$$

IAZ007>011-017>019-026>030-037>042-050>054-066-190400-
   NORTHEAST IOWA

CITY           SKY/WX    TMP DP  RH WIND       PRES   REMARKS
CEDAR RAPIDS   CLEAR     57  47  69 S7        30.01S
CHARLES CITY * CLOUDY    57  39  51 NW6       30.01S
CLINTON *      CLEAR     55  44  66 S8        30.05R
DECORAH *      CLEAR     59  48  67 CALM      29.98R
DUBUQUE        CLEAR     54  47  77 S8        30.01S
MONTICELLO *   PTCLDY    55  48  76 S6        30.01S
OELWEIN *      CLEAR     54  48  82 SW6       30.01R
WATERLOO       CLEAR     55  47  74 W3        30.00R
$$

IAZ064-065-067-068-078-190400-
   EAST CENTRAL IOWA

CITY           SKY/WX    TMP DP  RH WIND       PRES   REMARKS
DAVENPORT      CLEAR     59  43  55 SW8       30.07R
IOWA CITY      CLEAR     54  47  77 CALM      30.04S
MUSCATINE *    CLEAR     55  46  71 S3        30.05S
QUAD CITIES    CLEAR     58  42  55 CALM      30.04R
$$

IAZ062-063-075>077-085>089-095>099-190400-
   SOUTHEAST IOWA

CITY           SKY/WX    TMP DP  RH WIND       PRES   REMARKS
BURLINGTON     CLEAR     53  46  77 S3        30.06R
FAIRFIELD *    CLEAR     59  46  63 S6        30.05R
FORT MADISON * CLEAR     57  46  67 S3        30.07R
KEOKUK *       CLEAR     59  46  63 CALM      30.05R
OSKALOOSA *      N/A     54  47  78 S6        30.05R
OTTUMWA        CLEAR     55  48  77 S6        30.04R
WASHINGTON *   CLEAR     54  46  76 S6        30.06R
$$

ABBREVIATIONS USED IN REMARKS
   TC - TEMPERATURES IN CELSIUS
  WCI - WIND CHILL INDEX
   HX - HEAT INDEX
  VSB - VISIBILITY
$$





USA.gov is the U.S. government's official web portal to all federal, state and local government web resources and services.